Notices

What's New in latest Release from April 7th, 2021:

- Updated Glossary, including Speed of Maximum Gust, and Total Hourly Precipitation

- Updated national and regional climate services offices contacts and prices information

- Addition of station inventory lists for 1981-2010, 1971-2000, and 1961-1990 Normals.

If you haven't already, please take our survey and provide feedback about our website: https://eccc.sondage-survey.ca/f/LanguageSelection.aspx?s=442ca660-fcf1-47c0-95a9-59707d6fd709

Hourly Data Report for November 28, 2019

SAINT JOHN A
NEW BRUNSWICK
Current Station Operator: NAVCAN

45°18'58.000" N
65°53'24.000" W
108.80 m
8104901
71609
YSJ

Download Data

Hourly Data (November 2019)
Hourly Data Report for November 28, 2019
TIME
LST
Temp Definition
°C
Dew Point Definition
°C
Rel Hum Definition
%
Precip. Amount Definition
mm

Wind Dir Definition
10's deg

Wind Spd Definition
km/h
Visibility Definition
km
Stn Press Definition
kPa
Hmdx Definition


Wind Chill Definition


Weather Definition


00:00 3.8 1.6 85   9 18 24.1 99.25     LegendNANA
01:00 3.8 1.8 87   8 19 24.1 99.13     LegendNANA
02:00 2.9 1.9 93   6 24 12.9 98.96     Rain
03:00 2.5 1.6 94   6 32 12.9 98.72     Rain
04:00 2.5 1.6 94   7 23 6.4 98.60     Rain,Fog
05:00 2.5 1.4 92   5 22 6.4 98.45     Rain,Fog
06:00 1.9 1.0 94   3 13 6.4 98.45     Rain,Fog
07:00 0.4 0.0 97   2 22 3.2 98.39     Snow
08:00 0.3 0.0 98   2 27 2.4 98.37     Snow
09:00 0.4 -0.2 96   3 27 3.2 98.44     Snow
10:00 0.6 -0.1 95   2 35 8.1 98.43     Snow
11:00 0.7 -0.1 95   2 32 1.2 98.44     Snow
12:00 0.6 0.1 97   2 34 1.6 98.45     Snow
13:00 0.8 0.3 96   1 38 2.8 98.50     Snow
14:00 1.1 0.4 95   36 36 8.1 98.52     Snow
15:00 1.4 0.8 95   1 36 4.8 98.60     Snow
16:00 1.7 1.0 95   1 40 4.8 98.77     Rain,Fog
17:00 2.0 1.0 93   1 41 8.1 98.88     Rain,Fog
18:00 1.9 0.7 92   36 40 24.1 99.02     LegendNANA
19:00 2.0 0.4 89   36 48 24.1 99.11     LegendNANA
20:00 1.7 0.6 92   36 36 8.1 99.20     Rain,Fog
21:00 1.5 0.6 93   36 40 8.1 99.23     Rain,Fog
22:00 1.5 0.3 92   36 47 4.8 99.26     Rain,Fog
23:00 1.7 0.3 90   36 43 4.8 99.33     Rain,Fog

Notes on Data Quality.

Legend

  • E = Estimated
  • M = Missing
  • NA = Not Available*
  • [empty] = Indicates an unobserved value
Date modified: